Regional Weather Roundup
Issued by NWS

Home | Current Version | Previous Version | Graphics & Text | Print | Product List | Glossary On
Versions: 1 2 3 4 5 6 7 8 9 10 11 12 13 14 15 16 17 18 19 20 21 22 23 24 25 26 27 28 29 30 31 32 33 34 35 36 37 38 39 40 41 42 43 44 45 46 47 48 49 50
000
ASUS45 KBOU 100210
RWRCO

WEATHER ROUNDUP FOR COLORADO
NATIONAL WEATHER SERVICE DENVER/BOULDER CO
800 PM MDT WED JUL 09 2014

NOTE: "FAIR" INDICATES FEW OR NO CLOUDS BELOW 12000 FEET WITH NO
SIGNIFICANT WEATHER AND/OR OBSTRUCTIONS TO VISIBILITY.

COZ001>005-013-030-031-100300-
...NORTHWEST COLORADO...

CITY           SKY/WX    TMP DP  RH WIND       PRES   REMARKS
CRAIG          MOCLDY    68  45  43 S13G23    30.11R
HAYDEN         MOCLDY    73  39  29 SW14      30.13S
MEEKER         CLOUDY    64  51  62 E12G22    30.19F
MOUNT WERNER   MOCLDY    63  32  31 SW8       30.48S
STEAMBOAT SPGS MOCLDY    74  45  34 CALM      30.17S
WALDEN         CLEAR     64  45  48 SE9       30.23R
$$

COZ006>008-011-100300-
...WEST CENTRAL VALLEYS...

CITY           SKY/WX    TMP DP  RH WIND       PRES   REMARKS
GRAND JUNCTION PTCLDY    86  38  18 E16       29.99R
MONTROSE       PTCLDY    80  45  28 S9        30.12R
EAGLE          CLOUDY    75  39  27 W12G17    30.18R
RIFLE          CLOUDY    79  45  29 NE12      30.13R
DELTA          PTCLDY    85  46  25 W7        30.08R
NUCLA          DRIZZLE   70  54  56 NW12      30.20R
$$

COZ017>023-064>068-100300-
...SOUTHWEST COLORADO...

CITY           SKY/WX    TMP DP  RH WIND       PRES   REMARKS
DURANGO        MOCLDY    66  52  60 SE7       30.22S
CORTEZ         CLEAR     77  50  38 NE9       30.12R
PAGOSA SPRINGS MOCLDY    63  53  71 S3        30.32R
TELLURIDE      CLOUDY    57  50  77 CALM      30.40R
WOLF CREEK PAS NOT AVBL
$$

COZ009-010-012-014-032>034-037-058>063-100300-
...CENTRAL COLORADO...

CITY           SKY/WX    TMP DP  RH WIND       PRES   REMARKS
ASPEN          CLOUDY    69  46  43 SW3       30.26R
BUENA VISTA    MOCLDY    73  36  26 S9        30.26R
COPPER MTN     MOCLDY    59  32  36 W17       30.60R
BERTHOUD PASS  CLOUDY    46  32  57 NW3G9     30.67R
COTTONWOOD PAS MOCLDY    68  30  24 SW9       30.43R
GUNNISON       NOT AVBL
KREMMLING      CLOUDY    70  39  32 E3        30.22R
LEADVILLE      MOCLDY    66  30  26 CALM      30.41R
MONARCH PASS   MOCLDY    55  34  44 W9        30.70R
SALIDA         MOCLDY   N/A N/A N/A S14G21    30.30R
SUNLIGHT       CLOUDY    59  39  47 CALM      30.54R
WILKERSON PASS CLOUDY    46  41  81 SE8G17    30.58S
$$

COZ069>075-100300-
...SAN LUIS VALLEY/SANGRE DE CRISTO MOUNTAINS...

CITY           SKY/WX    TMP DP  RH WIND       PRES   REMARKS
ALAMOSA        MOCLDY    69  46  43 SE13      30.27S
LA VETA PASS   CLOUDY    54  41  62 SW9G17    30.45R
SAGUACHE       NOT AVBL
$$

COZ035-036-038>040-100300-
...NORTHERN COLORADO FRONT RANGE...

CITY           SKY/WX    TMP DP  RH WIND       PRES   REMARKS
DENVER INTL AP CLOUDY    81  45  28 W17       30.04F
DMNS CITY PARK   N/A     79  44  29 W2G12     30.05S
AURORA         MOCLDY    76  48  36 S6        30.09R
FRONT RANGE AP NOT AVBL
ERIE MUNI ARPT CLOUDY    76  54  46 S3        30.03R
BOULDER MUN AP CLOUDY    77  45  31 SW20G29   30.03S
CENTENNIAL     CLOUDY    77  43  29 W9        30.10R
BROOMFIELD     NOT AVBL
FORT COLLINS   CLOUDY    81  59  47 SE13      29.98S
LONGMONT       CLOUDY    81  44  26 SW21G26   30.00F
$$

COZ041-046-047-076>085-087-088-100300-
...PIKES PEAK/PALMER DIVIDE AND SOUTHERN FOOTHILLS...

CITY           SKY/WX    TMP DP  RH WIND       PRES   REMARKS
COLO. SPRINGS  CLOUDY    77  40  26 NW21G29   30.16R
A. F. ACADEMY  CLOUDY    72  44  35 SW13      30.19S
ELLICOTT       NOT AVBL
FALCON         CLOUDY    72  39  30 W14       30.20F
FORT CARSON    PTCLDY    78  43  28 N20G28    30.11R
LIMON          CLOUDY    80  40  23 W10       30.04F
MONUMENT HILL  CLOUDY    70  36  28 SW9       30.19R
TRINIDAD       MOCLDY    76  49  38 SW20      30.10R
$$

COZ042>045-048>051-090-091-100300-
...NORTHEAST COLORADO...

CITY           SKY/WX    TMP DP  RH WIND       PRES   REMARKS
GREELEY ARPT   MOCLDY    81  57  44 S9        29.99S
AKRON          CLOUDY    73  51  46 S23       29.98R
BURLINGTON     CLOUDY    82  58  43 SE15      29.97R
WRAY           MOCLDY    85  54  33 S9        29.91R
STERLING       CLOUDY    81  55  41 SE5       29.91R
HOLYOKE        MOCLDY    84  61  45 SE9       29.92R
FORT MORGAN    CLOUDY    74  52  45 S6        29.98R
$$

COZ086-089-092>099-100300-
...SOUTHEAST COLORADO...

CITY           SKY/WX    TMP DP  RH WIND       PRES   REMARKS
PUEBLO         MOCLDY    89  45  21 CALM      29.96R
LA JUNTA       CLEAR     83  53  35 S23G33    29.94R
LAMAR          CLEAR     85  49  28 SW23      29.91R
SPRINGFIELD      N/A     77  50  38 W15G26    30.01F
$$



USA.gov is the U.S. government's official web portal to all federal, state and local government web resources and services.